User: anonymous   Login
Location: Unspecified
(0.0000°N, 0.0000°E)
Time: 21:19:14
(UTC+00:00)
Language:

PCSat - Orbit

View from above orbital plane
View from above orbital plane
View from above satellite
View from above satellite

Ground track
Ground track

The orbit data is extracted from the following two-line orbital elements,

1 26931U 01043C   18022.92860811 -.00000051 +00000-0 +12439-4 0  9997
2 26931 067.0497 244.2198 0005341 278.4627 081.5869 14.30491556851701
Epoch (UTC): 22 January 2018 22:17:11
Eccentricity: 0.0005341
inclination: 67.0497°
perigee height: 786 km
apogee height: 794 km
right ascension of ascending node: 244.2198°
argument of perigee: 278.4627°
revolutions per day: 14.30491556
mean anomaly at epoch: 81.5869°
orbit number at epoch: 85170

The dashed part of the orbit path shows where the satellite is in the earth's shadow,  

DLR